Presure
290 254 276 282 250 235 227 222 219 218 223 227 246 239 273 272 273 277 275 274 299 276 269 284 274 281 279 278 273 273 273 272 272 266 264 263 262 261 264 288 283 303 314
276 273 239 237 251 255 268 275 303 257 263 271 279 274 262 265 254 262 258 295 279 270 265 280 273 272 278 274 270 267 263 258 259 258 255 255 255 259 282 275 299 297 300
298 300 267 252 253 259 280 287 288 284 274 289 279 248 252 256 255 265 282 279 277 263 265 267 270 267 265 261 260 259 257 255 254 252 251 255 289 271 269 283 288 291 290
273 266 275 285 289 282 272 259 278 255 266 264 260 253 245 268 275 277 292 277 280 264 272 273 269 266 256 255 253 253 252 249 253 253 277 279 265 264 261 286 275 276 282
279 276 278 279 280 277 286 285 299 298 282 270 278 268 261 267 271 305 298 280 275 272 275 268 265 263 255 252 250 249 253 252 275 283 268 262 261 255 282 270 268 262 261
283 287 288 287 334 332 323 320 311 318 318 307 292 289 284 287 291 291 278 278 284 263 263 262 255 251 247 245 246 251 274 279 265 261 260 259 260 282 274 266 269 267 265
341 326 327 319 324 309 305 308 303 306 318 321 318 293 282 275 273 292 288 281 274 262 257 253 249 244 244 243 263 278 266 260 260 261 261 262 293 279 266 262 249 246 247
289 272 273 291 270 280 290 293 305 279 292 295 312 307 274 268 277 274 281 266 264 255 253 247 242 242 248 266 269 258 261 264 277 273 287 286 286 273 258 247 243 245 237
273 281 258 252 279 277 275 274 293 294 291 292 290 295 306 307 307 306 267 266 255 254 248 241 242 249 256 267 257 259 272 345 323 295 286 286 280 262 254 240 235 236 227
286 259 261 264 266 276 269 271 269 276 290 293 288 281 274 273 270 277 257 256 251 249 241 240 249 249 267 256 252 274 266 363 339 304 302 284 272 258 245 242 230 234 228
276 250 255 267 264 263 259 261 262 261 263 264 263 263 263 262 260 257 256 251 249 245 240 245 247 255 262 249 255 277 270 316 309 299 283 270 263 252 238 241 231 233 226
252 247 258 261 259 261 253 251 249 247 250 251 251 250 249 250 252 253 253 248 247 243 242 246 244 265 253 245 260 271 269 270 273 271 268 264 250 239 233 236 232 230 228
251 271 258 264 260 258 252 252 248 246 246 247 249 249 248 248 249 248 243 244 242 240 250 245 252 265 247 243 256 261 262 263 263 261 256 248 242 230 233 233 232 230 227
265 247 261 260 253 257 253 246 248 250 251 266 264 263 263 262 263 266 267 267 269 266 268 262 262 258 244 241 243 241 231 239 232 230 234 234 231 229 228 226 225 225 224
249 248 248 261 253 253 248 248 250 247 261 261 256 269 279 282 275 273 275 285 292 282 262 261 264 255 242 238 237 239 239 230 231 231 228 226 228 228 229 229 228 227 226
250 244 249 251 260 251 250 247 245 251 255 262 257 255 282 265 272 267 268 269 271 274 264 252 265 251 241 238 237 231 234 234 232 230 224 223 226 226 227 228 230 233 234
278 245 250 250 253 260 250 249 246 256 253 253 257 253 257 264 270 265 257 263 262 266 272 272 261 251 241 239 236 233 230 238 235 230 230 230 231 232 232 223 235 231 231
265 264 268 266 262 257 258 250 247 246 255 257 260 252 250 250 256 262 262 254 256 260 259 267 258 252 247 240 238 233 238 238 233 235 236 237 237 235 234 232 234 237 238
269 269 268 254 260 260 259 249 246 254 255 250 258 258 249 247 249 253 254 256 256 253 254 255 264 253 251 250 247 243 230 228 229 233 235 235 234 234 235 235 237 240 242
273 271 263 259 259 257 256 253 250 245 248 259 253 268 253 246 243 243 251 261 262 259 257 255 259 263 265 262 255 247 242 242 245 247 248 247 248 247 246 253 257 261 259
271 260 261 273 270 266 261 256 252 250 251 261 263 273 260 249 243 241 240 241 261 266 264 260 258 254 252 252 253 254 256 258 258 258 258 255 254 252 251 248 246 249 251
284 281 267 270 267 265 257 254 256 257 253 260 257 277 265 249 246 242 245 245 244 247 250 256 259 259 258 256 254 251 250 248 247 247 248 248 248 249 251 253 254 254 254
276 287 285 266 263 261 261 260 256 257 259 271 283 275 262 250 247 243 243 245 246 244 248 249 250 250 251 253 256 259 261 262 264 265 266 267 267 268 269 270 270 269 270
284 271 273 281 279 276 273 274 275 274 279 280 266 260 253 246 245 244 246 246 243 244 242 241 245 248 248 247 250 250 252 256 260 263 265 264 274 282 282 278 276 274 272
279 283 292 291 288 282 279 281 279 272 266 259 253 252 250 249 247 245 247 246 243 245 250 253 252 255 250 252 259 259 262 261 262 266 273 282 284 282 281 283 286 286 286
268 267 267 266 265 263 262 260 258 256 253 253 253 253 251 250 250 250 250 252 252 252 254 256 256 258 264 264 269 271 268 268 271 277 287 290 290 286 283 281 283 285 286
Wind_Speed
60 79 83 95 91 105 117 123 117 122 131 133 131 122 115 97 83 79 79 82 51 51 56 48 48 42 42 42 44 44 44 46 46 48 49 51 53 56 58 51 50 42 33
75 81 75 82 86 91 94 102 94 132 127 128 109 110 97 87 76 74 73 58 51 55 56 45 45 43 40 39 39 39 41 43 46 47 49 51 53 53 43 45 35 32 29
66 67 83 94 97 97 91 84 77 81 88 88 88 87 84 85 74 73 76 58 55 56 55 48 45 42 39 39 40 41 42 44 45 48 50 51 42 42 39 36 29 24 24
60 64 68 70 68 62 67 73 73 82 86 83 88 89 74 95 90 77 59 55 56 58 51 44 42 40 40 41 43 44 46 47 48 48 44 39 40 39 37 28 25 22 16
59 60 61 62 63 64 71 73 80 82 84 89 85 88 88 90 90 70 48 50 50 45 42 39 40 39 40 42 45 47 48 48 45 38 38 39 38 36 30 29 26 23 20
60 64 67 68 63 56 53 55 53 45 43 57 71 70 81 83 72 59 44 45 38 41 38 37 38 40 43 45 46 47 44 39 40 41 40 39 37 32 29 27 25 21 17
31 25 25 30 28 26 31 32 33 30 32 37 41 62 62 62 57 56 46 42 34 36 36 38 39 43 45 47 43 40 40 41 42 41 40 38 33 31 29 27 26 24 23
26 31 30 21 28 27 22 23 28 34 34 28 31 43 60 62 62 49 53 35 33 36 38 39 42 45 45 40 38 39 41 41 41 40 36 34 33 32 32 31 31 28 29
26 27 29 31 26 26 22 21 23 30 29 31 25 27 35 39 42 45 35 32 33 36 38 41 45 42 39 36 38 40 40 39 39 40 35 35 33 35 34 34 33 33 35
25 26 28 25 26 22 19 18 19 21 20 23 25 27 30 32 32 30 32 32 35 37 41 43 40 40 37 36 38 37 36 33 31 35 34 35 34 36 36 36 37 37 37
23 26 26 24 26 24 22 19 17 18 21 22 24 25 26 26 29 31 31 36 39 41 43 42 40 38 37 37 36 33 31 24 27 29 31 31 34 36 37 38 40 40 40
28 31 27 27 28 26 24 23 23 24 25 25 26 28 29 30 31 33 37 41 42 44 43 41 40 38 37 37 35 30 26 21 23 25 27 31 35 37 38 40 43 43 44
28 29 29 26 27 27 27 27 28 29 30 31 33 34 36 37 39 40 42 44 45 46 43 40 41 39 38 37 34 32 27 24 26 28 30 33 37 38 40 43 44 46 47
28 32 33 28 28 28 29 31 32 32 32 32 33 36 37 39 41 42 43 44 45 45 43 41 42 40 39 37 36 34 37 35 37 35 34 36 39 43 45 47 49 49 51
34 35 35 33 32 30 31 32 33 33 31 31 32 30 30 31 32 34 35 34 34 39 40 39 40 41 42 42 39 38 39 42 42 41 42 44 47 49 51 52 53 53 56
40 38 39 38 36 33 32 33 34 33 33 32 30 29 27 29 30 33 33 33 34 35 41 43 41 43 45 44 44 45 45 46 47 49 51 51 53 54 56 58 59 60 62
32 41 42 40 40 38 36 35 35 33 34 34 33 32 29 28 30 31 32 35 36 37 38 40 45 47 49 49 50 50 51 51 52 55 57 59 60 61 61 58 63 64 67
36 38 36 38 40 40 39 36 37 37 35 36 35 35 34 33 31 32 34 37 40 40 42 44 49 51 53 53 53 52 56 58 59 60 62 65 65 65 67 69 71 73 74
42 39 39 39 40 42 42 40 41 40 39 39 38 39 37 36 35 36 38 41 43 45 45 48 52 54 55 58 59 60 58 59 60 64 68 70 71 71 73 76 78 80 81
42 41 41 41 41 41 41 43 43 43 44 44 44 42 42 40 40 38 39 42 45 48 50 49 51 55 60 64 66 66 66 69 72 74 77 79 80 79 80 83 84 85 84
46 43 43 44 43 42 43 44 45 47 48 48 46 46 45 45 45 45 44 44 43 45 49 53 54 55 57 58 60 62 64 67 70 73 75 76 77 78 79 79 80 82 83
43 47 45 45 45 45 46 47 48 49 49 51 49 49 48 49 49 50 48 48 48 49 50 51 55 58 61 63 64 66 68 71 74 76 78 80 82 83 85 85 87 88 89
41 41 45 46 46 47 48 49 50 51 53 55 51 47 49 51 53 54 54 54 55 56 56 57 59 61 63 66 67 68 70 72 74 76 79 82 85 87 88 89 90 91 92
37 41 42 45 49 52 53 54 54 55 53 47 47 48 51 54 57 58 59 60 61 62 63 65 67 69 70 71 73 75 76 76 77 80 82 83 85 85 87 89 91 91 93
34 35 36 39 43 46 47 46 45 45 47 50 52 54 56 58 60 63 64 66 68 70 71 73 74 76 75 77 80 80 81 82 83 85 88 89 88 87 88 89 91 92 92
38 39 39 39 40 42 44 46 49 51 53 55 57 59 62 64 66 68 70 72 74 75 78 79 80 82 84 85 88 89 88 89 91 93 94 92 91 92 93 94 94 95 96
Wind_Direction
260 252 258 250 247 245 248 252 258 261 262 264 267 274 274 278 280 288 287 286 280 273 275 278 275 270 267 267 269 268 266 267 269 268 271 272 274 276 280 284 286 288 289
252 256 256 264 258 260 261 261 266 256 262 266 268 269 272 277 281 285 288 276 271 269 273 273 270 271 269 267 265 265 266 266 267 269 272 274 276 280 282 287 287 289 289
265 261 245 253 261 263 264 262 267 263 266 266 265 268 275 277 282 282 285 268 264 269 269 268 271 270 270 270 270 270 269 269 269 269 272 277 279 280 284 284 281 282 282
265 269 268 266 265 262 262 264 264 261 265 260 262 268 276 277 279 285 279 268 263 265 267 269 268 266 267 268 269 270 269 269 271 274 278 275 277 282 283 273 272 274 272
267 268 271 273 274 273 272 273 272 264 261 263 260 262 267 271 276 281 270 267 257 266 268 266 265 265 265 267 268 269 269 272 278 274 273 273 275 277 267 266 263 263 266
271 271 271 270 268 265 270 272 266 268 256 249 255 257 261 269 270 279 259 260 262 260 263 264 261 263 265 267 270 271 279 275 273 272 270 270 271 262 255 254 250 246 241
262 260 263 262 259 265 269 272 267 281 272 267 255 248 256 262 268 273 268 265 260 256 259 259 261 264 267 270 278 279 275 273 271 269 268 267 253 248 244 243 249 247 247
255 269 270 261 274 269 271 275 254 264 269 265 259 248 252 259 264 265 270 255 250 252 255 258 262 266 270 282 279 275 274 272 270 266 263 255 245 237 238 242 247 245 250
263 264 270 273 265 268 268 277 273 260 254 255 255 259 255 258 260 256 252 248 251 251 254 259 263 269 279 280 277 277 276 257 257 258 253 244 236 233 235 242 246 247 253
252 253 259 267 271 265 267 273 279 281 272 262 256 251 249 251 253 252 248 249 249 250 254 260 266 272 280 275 275 280 276 249 237 242 238 236 231 231 236 239 246 244 250
256 257 263 269 268 262 263 267 269 269 271 269 267 265 264 260 256 257 254 251 249 252 258 261 267 277 273 273 277 277 272 257 246 238 237 238 233 234 241 242 246 245 251
244 255 271 263 265 264 269 272 271 272 270 267 264 264 262 261 259 257 255 253 253 258 262 264 267 273 266 270 276 272 269 266 261 250 243 237 237 241 246 246 249 253 255
253 267 265 258 254 255 259 261 266 267 268 270 270 269 268 267 264 259 258 257 259 262 263 265 269 263 261 266 269 267 265 263 256 250 242 242 244 251 252 254 256 257 261
247 254 258 254 254 254 255 262 265 270 272 273 273 272 270 268 268 269 268 267 264 263 265 262 258 253 258 262 263 262 265 262 261 261 255 254 256 256 256 258 260 262 264
242 254 259 254 252 253 258 264 268 270 275 269 267 272 269 265 264 264 264 265 265 264 259 256 255 251 254 258 262 263 262 263 264 264 261 259 258 259 261 262 264 266 267
247 256 255 259 253 255 258 260 264 271 273 273 267 268 278 271 272 268 267 266 265 262 254 255 251 250 254 259 260 261 260 259 260 261 263 265 266 266 267 268 269 270 271
253 253 256 259 259 255 257 260 264 274 272 273 273 273 275 278 272 268 269 269 266 264 262 256 250 250 251 254 258 260 262 260 260 261 262 264 265 268 271 274 276 276 274
247 248 251 252 254 257 258 260 264 268 271 272 271 270 272 273 277 277 273 270 271 269 266 263 254 254 255 259 261 266 263 264 267 266 266 266 268 270 272 273 273 274 275
253 252 252 251 253 256 259 263 268 270 271 271 273 267 268 271 273 275 275 273 271 270 269 268 264 261 261 261 262 263 268 269 270 270 270 270 270 271 272 274 275 276 277
254 254 254 255 258 258 261 263 266 270 271 274 272 270 267 270 270 272 275 276 274 273 272 270 270 269 267 266 266 266 267 268 268 269 270 271 272 273 274 275 276 277 278
254 256 259 259 258 259 259 262 265 268 270 277 276 274 265 267 269 272 273 275 276 273 273 274 274 273 272 271 271 271 272 272 273 273 273 274 276 276 276 277 278 279 279
258 255 255 257 257 258 261 264 267 269 273 275 273 276 265 268 271 274 276 276 276 276 276 276 275 274 274 273 272 271 271 272 273 274 275 275 276 277 278 278 279 280 280
258 259 256 259 261 263 265 267 270 272 274 276 275 270 266 268 271 273 274 276 276 276 277 277 276 276 276 277 277 276 276 275 276 276 276 277 277 277 277 278 278 280 281
262 263 263 260 261 263 266 267 269 270 273 272 270 268 266 268 270 273 274 276 277 278 278 278 279 279 279 279 280 280 280 280 280 280 280 280 281 281 279 279 279 279 280
267 266 264 262 263 264 267 268 269 268 267 267 268 269 270 270 271 273 274 274 275 276 277 276 277 277 277 279 280 281 281 281 282 283 285 285 284 283 282 282 282 282 282
267 268 270 270 269 268 268 269 269 269 269 269 270 271 271 272 273 274 275 276 277 278 280 281 282 283 284 284 284 283 284 285 285 286 285 284 283 282 282 283 283 284 284